Location: Newark
(43.6583°N, 1.6617°E)
Time: 23:34:06
(UTC+00:00)

Tiros 1 - Pass Details

Date: 25 August 2019
Orbit: 631 x 664 km, 48.4° (Epoch: 17 September)

Event Time Altitude Azimuth Distance (km) Brightness Sun altitude
Rises 21:35:09 0° 206° (SSW) 2,904 - -27.1°
Reaches altitude 10° 21:37:46 10° 193° (SSW) 1,999 - -27.3°
Maximum altitude 21:41:31 25° 138° (SE) 1,267 - -27.8°
Drops below altitude 10° 21:45:18 10° 83° (E) 2,011 - -28.2°
Sets 21:47:56 0° 71° (ENE) 2,925 - -28.5°
